Погода Звериноголовская

Погода Звериноголовская : погода сейчас, прогноз погоды и архив. Всё, что Вы хотите узнать о погоде Звериноголовская!

Поиск расширенной информации на нашем сайте:

Другие новости

Новости СМИ2

Главная страница сайта

Новости сайта

03.07.2017

Напоминаем, что на нашем специализированном сайте Метеоцентр.Азия вы можете получить высокодетализированные автоматические прогнозы погоды по пунктам России, СНГ и мира в авиационном формате (включающие направление и скорость ветра, видимость, явления погоды, количество и форму облачности, нижнюю и верхнюю границу облачности).


Погода Звериноголовская - сегодня

Время (UTC), дата Ветер
(°,м/с) 
Видим.   Явления Облачность Т
(°С)
Тd
(°С)
f(%) Тe
(°С)
Pmin
(гПа)
dP
(гПа)
Po
(мм)
O2
(г/м3)
Тmin Tmax R s Состояние
почвы
00 17.09.18 120 (ЮВ) 10 км    ясно 
+5.2 +3.5 89 +4  1024.5  0.3  758  299           
06 17.09.18 130 (ЮВ) 20000 м    3/0 верхняя 
[Ci fib]
+16.6 +5 46 +17  1024.2  -0.2  758  287           
12 17.09.18 140 (ЮВ) 20000 м    ясно 
+19.1 +2.9 34 +20  1021.8  -1.2  756  284           
18 17.09.18 130 (ЮВ) 10 км    ясно 
+11.5 +3.9 60 +11  1021.9  -0.5  756  292           
00 18.09.18 170 (Ю) 10 км    9/0 верхняя 
[Cs]
+11.7 +2.4 53 +11  1020.3  -0.3  755  291           
06 18.09.18 170 (Ю) 20000 м    9/0 средняя, верхняя 
[Ac As|Cs]
+18 +3.4 38 +18  1020.1  -0.3  755  285           
18 18.09.18 130 (ЮВ) 10 км    ясно 
+14.5 +1 40 +14  1014.7  -1.3  751  287           
06 19.09.18 160 (Ю) 4{10}  20000 м    8/3 600 м верхняя 
[Sc|Cs]
+19.9 +0.6 27 +21  1005.4  -2.4  744  279           
18 19.09.18 160 (Ю) 10 км    10/10 600 м 
[Sc]
+15.8 +4.5 47 +17  1001.2  -0.8  741  281           
00 20.09.18 160 (Ю) 10 км    ясно 
+9.5 +7.5 87 +10  1001.2  0.1  740  287           
06 20.09.18 210 (ЮЗ) 20000 м    8/6 600 м верхняя 
[Cu Sc|Cc]
+15.1 +9.3 68 +17  1001.6  0.1  741  281           
12 20.09.18 310 (СЗ) 20000 м    9/8 600 м средняя 
[Cu Sc|Ac trans]
+18.5 +5.8 43 +20  1001.2  0.1  741  279           
06 21.09.18 020 (С) 20000 м  {дождь}  10/10 600 м 
[Frnb]
+12.6 +10.9 89 +16  999.5  0.8  739  283           
18 22.09.18 290 (З) 10 км    9/8 600 м кучево-дожд., средняя 
[Cb cap|Ac trans]
+11.4 +6.7 73 +13  1013.3  0.6  749  289           
00 23.09.18 310 (СЗ) 10 км    4/4 600 м 
[Sc diur, vesp]
+7.3 +5.8 90 +7  1015.6  1.4  751  294           
06 23.09.18 340 (С) 20000 м    6/6 1000 м 
[Cu hum]
+13.5 +7.4 67 +14  1017.7  0.5  753  288           
18 23.09.18 180 (Ю) 10 км    3/0 верхняя 
[Ci fib]
+5.3 +3.9 91 +6  1020.2  0.3  754  298           
00 24.09.18 190 (Ю) 10 км    ясно 
+3.9 +2.8 93 +5  1021.4  0.8  755  300           
06 24.09.18 200 (Ю) 20000 м    3/0 верхняя 
[Ci fib]
+15.8 +7.1 56 +17  1021  755  287           
12 24.09.18 200 (Ю) 20000 м    3/0 верхняя 
[Ci fib]
+20.2 +4.2 35 +20  1020.1  -0.2  755  283           
18 24.09.18 210 (ЮЗ) 10 км    ясно 
+11.7 +3.4 57 +13  1020.7  0.1  755  291           
00 25.09.18 190 (Ю) 10 км    ясно 
+9.4 +2.6 62 +9  1022.1  0.4  756  294           
06 25.09.18 200 (Ю) 20000 м    ясно 
+18.6 +5.2 41 +19  1022.9  0.5  757  285           
12 25.09.18 200 (Ю) 20000 м    ясно 
+21.8 +1.3 26 +22  1022.6  -0.2  757  282           
18 25.09.18 190 (Ю) 10 км    ясно 
+13.7 +5.4 57 +14  1023.8  0.6  757  290           
Время (UTC), дата Ветер
(°,м/с) 
Видим.   Явления Облачность Т
(°С)
Тd
(°С)
f(%) Тe
(°С)
Pmin
(гПа)
dP
(гПа)
Po
(мм)
O2
(г/м3)
Тmin Tmax R s Состояние
почвы

Для получения пояснительной информации подведите курсор к названию столбца.

ПОГОДА Звериноголовская - архив

Всё, что Вы хотите узнать о погоде Звериноголовская - удобно и подробно!

Выберите нужную дату (начиная с 1 января 2015* года) и нажмите кнопку "Найти".
Будут отображены архивные сводки погоды по пункту Звериноголовская, начиная с указанной даты.


Отображать данные в формате CSV (для использования в таблицах Excel)


Внимание! Наш архив погоды предназначен исключительно для личного некоммерческого использования в познавательных целях. Если Вам необходимы официальные справки о состоянии погоды (для производственных, юридических, коммерческих и т.п. целей), обращайтесь в органы Росгидромета.

*Примечание: данная дата относится к архиву по метеостанциям СССР (Россия, СНГ, Балтия).
Архив по метеостанциям Зарубежной Европы и Азии (кроме Китая) хранится 10 дней, по другим регионам земного шара (Китай, Африка, Америка, Австралия, Океания) - 1 день.

Звериноголовская - район местоположения метеостанции


Название, широта, долгота, высота метеостанции:
Звериноголовская 54.5°ш. 64.9°д. 117 м над ур. моря [Российская Федерация]

Дополнительная информация

В oтличие oт бoльшинства пoгoдных сайтoв мы публикуем пoдрoбную метеoинфoрмацию в детальнoм прoфессиoнальнoм фoрмате.

Характеристики температуры и влажнoсти вoздуха измеряются на высoте 2 м в тени вдали oт зданий и деревьев.
Скoрoсть ветра измеряется на высoте 10 м (на урoвне рoста челoвека скoрoсть ветра ниже в 1.5-2 раза). Если метеoстанция нахoдится в гoрoде или в лесу, тo скoрoсть ветра занижена на 2-4 м/с пo сравнению с oткрытым местoм. Скoрoсть ветра над акватoриями крупных рек и oзёр, а также на вершинах хoлмoв на 2-5 м/с выше, чем в oбычных услoвиях.
Атмoсфернoе давление в разных тoчках местнoсти мoжет значительнo oтличаться oт давления на метеoстанции, в зависимoсти oт услoвий рельефа (при пoдъёме на 10 м давление пoнижается примернo на 1 мм рт.ст.).